TimeCDT,TemperatureF,Dew PointF,Humidity,Sea Level PressureIn,VisibilityMPH,Wind Direction,Wind SpeedMPH,Gust SpeedMPH,PrecipitationIn,Events,Conditions,WindDirDegrees,DateUTC
12:15 AM,67.1,59.9,78,29.94,10.0,North,3.5,-,N/A,,Clear,360,2013-07-20 05:15:00
12:35 AM,66.7,60.1,79,29.94,10.0,NNW,4.6,-,N/A,,Clear,330,2013-07-20 05:35:00
12:55 AM,65.7,59.4,80,29.96,10.0,NNW,4.6,-,N/A,,Clear,330,2013-07-20 05:55:00
1:15 AM,64.8,59.0,82,29.96,10.0,NNW,3.5,-,N/A,,Clear,330,2013-07-20 06:15:00
1:35 AM,64.8,59.0,82,29.96,10.0,NNW,4.6,-,N/A,,Clear,340,2013-07-20 06:35:00
1:55 AM,63.9,58.1,81,29.96,10.0,NNW,3.5,-,N/A,,Clear,340,2013-07-20 06:55:00
2:15 AM,63.7,58.1,82,29.95,10.0,NNW,3.5,-,N/A,,Clear,330,2013-07-20 07:15:00
2:35 AM,62.1,57.0,84,29.96,10.0,WNW,3.5,-,N/A,,Clear,290,2013-07-20 07:35:00
2:55 AM,61.9,57.2,85,29.96,10.0,West,3.5,-,N/A,,Clear,270,2013-07-20 07:55:00
3:35 AM,61.2,56.5,85,29.94,10.0,NW,3.5,-,N/A,,Clear,310,2013-07-20 08:35:00
3:55 AM,60.8,56.7,86,29.94,10.0,NNW,4.6,-,N/A,,Clear,340,2013-07-20 08:55:00
4:15 AM,61.7,57.4,86,29.93,10.0,Calm,Calm,-,N/A,,Clear,0,2013-07-20 09:15:00
4:35 AM,59.9,55.9,87,29.93,10.0,Calm,Calm,-,N/A,,Clear,0,2013-07-20 09:35:00
4:55 AM,59.4,55.4,87,29.93,10.0,West,3.5,-,N/A,,Clear,260,2013-07-20 09:55:00
5:15 AM,59.5,55.4,86,29.93,10.0,West,4.6,-,N/A,,Clear,260,2013-07-20 10:15:00
5:35 AM,59.2,55.2,87,29.92,10.0,SW,4.6,-,N/A,,Clear,220,2013-07-20 10:35:00
5:55 AM,58.5,54.5,87,29.92,10.0,Calm,Calm,-,N/A,,Clear,0,2013-07-20 10:55:00
6:15 AM,58.1,53.8,86,29.93,10.0,Calm,Calm,-,N/A,,Clear,0,2013-07-20 11:15:00
6:35 AM,58.8,54.9,87,29.94,10.0,North,4.6,-,N/A,,Clear,10,2013-07-20 11:35:00
6:55 AM,60.6,56.5,86,29.94,10.0,Calm,Calm,-,N/A,,Clear,0,2013-07-20 11:55:00
7:15 AM,63.5,58.8,85,29.93,10.0,Calm,Calm,-,N/A,,Clear,0,2013-07-20 12:15:00
7:35 AM,65.1,58.6,79,29.94,10.0,Calm,Calm,-,N/A,,Clear,0,2013-07-20 12:35:00
7:55 AM,65.7,60.1,82,29.94,10.0,Calm,Calm,-,N/A,,Clear,0,2013-07-20 12:55:00
8:15 AM,68.4,61.2,78,29.96,10.0,Calm,Calm,-,N/A,,Clear,0,2013-07-20 13:15:00
8:35 AM,69.8,61.0,73,29.96,10.0,Calm,Calm,-,N/A,,Clear,0,2013-07-20 13:35:00
8:55 AM,73.4,61.7,67,29.97,10.0,North,4.6,-,N/A,,Clear,360,2013-07-20 13:55:00
9:15 AM,73.9,61.0,64,30.00,10.0,NW,5.8,-,N/A,,Clear,320,2013-07-20 14:15:00
9:35 AM,75.2,60.8,61,29.99,10.0,NNW,3.5,-,N/A,,Clear,340,2013-07-20 14:35:00
9:55 AM,75.7,60.4,59,30.00,10.0,North,3.5,-,N/A,,Clear,360,2013-07-20 14:55:00
10:15 AM,77.0,60.4,56,29.99,10.0,Calm,Calm,-,N/A,,Clear,0,2013-07-20 15:15:00
10:55 AM,79.5,57.4,47,30.00,10.0,Calm,Calm,-,N/A,,Clear,0,2013-07-20 15:55:00
11:35 AM,81.3,57.2,44,30.00,10.0,ENE,3.5,-,N/A,,Clear,70,2013-07-20 16:35:00
11:55 AM,82.2,55.8,40,29.99,10.0,East,5.8,-,N/A,,Clear,100,2013-07-20 16:55:00
12:15 PM,82.6,54.5,38,29.98,10.0,Calm,Calm,-,N/A,,Clear,0,2013-07-20 17:15:00
12:35 PM,83.7,56.3,39,29.98,10.0,South,3.5,-,N/A,,Clear,170,2013-07-20 17:35:00
12:55 PM,84.4,54.9,36,29.97,10.0,SSE,5.8,-,N/A,,Clear,150,2013-07-20 17:55:00
1:15 PM,84.2,55.2,37,29.95,10.0,Calm,Calm,-,N/A,,Clear,0,2013-07-20 18:15:00
1:35 PM,85.3,55.8,36,29.94,10.0,SSE,3.5,-,N/A,,Clear,150,2013-07-20 18:35:00
1:55 PM,86.2,53.6,33,29.94,10.0,ESE,5.8,-,N/A,,Clear,120,2013-07-20 18:55:00
2:15 PM,86.2,50.5,29,29.94,10.0,SSE,4.6,-,N/A,,Clear,150,2013-07-20 19:15:00
2:35 PM,85.6,52.5,32,29.94,10.0,SE,3.5,-,N/A,,Clear,140,2013-07-20 19:35:00
2:55 PM,86.4,49.6,28,29.94,10.0,East,3.5,-,N/A,,Clear,90,2013-07-20 19:55:00
3:15 PM,87.3,50.0,28,29.93,10.0,Calm,Calm,-,N/A,,Clear,0,2013-07-20 20:15:00
3:35 PM,86.4,48.6,27,29.94,10.0,South,3.5,-,N/A,,Clear,170,2013-07-20 20:35:00
3:55 PM,86.4,47.1,26,29.94,10.0,Calm,Calm,-,N/A,,Clear,0,2013-07-20 20:55:00
4:15 PM,87.1,46.4,24,29.93,10.0,East,3.5,-,N/A,,Clear,80,2013-07-20 21:15:00
4:35 PM,85.8,48.2,27,29.92,10.0,Calm,Calm,-,N/A,,Clear,0,2013-07-20 21:35:00
4:55 PM,85.3,51.4,31,29.92,10.0,Calm,Calm,-,N/A,,Clear,0,2013-07-20 21:55:00
5:15 PM,86.7,49.8,28,29.90,10.0,Calm,Calm,-,N/A,,Clear,0,2013-07-20 22:15:00
5:35 PM,86.9,50.9,29,29.90,10.0,Calm,Calm,-,N/A,,Clear,0,2013-07-20 22:35:00
5:55 PM,86.2,50.4,29,29.88,10.0,Calm,Calm,-,N/A,,Clear,0,2013-07-20 22:55:00
6:15 PM,85.5,54.0,34,29.88,10.0,North,3.5,-,N/A,,Clear,350,2013-07-20 23:15:00
6:35 PM,83.7,59.4,44,29.89,10.0,NNW,3.5,-,N/A,,Clear,330,2013-07-20 23:35:00
6:55 PM,83.5,57.6,41,29.89,10.0,Calm,Calm,-,N/A,,Clear,0,2013-07-20 23:55:00
7:15 PM,84.2,56.5,39,29.89,10.0,NNE,4.6,-,N/A,,Clear,20,2013-07-21 00:15:00
7:35 PM,83.5,55.6,38,29.89,10.0,NE,3.5,-,N/A,,Clear,40,2013-07-21 00:35:00
7:55 PM,82.2,58.3,44,29.90,10.0,Calm,Calm,-,N/A,,Clear,0,2013-07-21 00:55:00
8:15 PM,80.6,61.2,51,29.90,10.0,NE,3.5,-,N/A,,Clear,50,2013-07-21 01:15:00
8:35 PM,77.2,61.0,57,29.89,10.0,Calm,Calm,-,N/A,,Clear,0,2013-07-21 01:35:00
8:55 PM,75.7,61.2,60,29.90,10.0,Calm,Calm,-,N/A,,Clear,0,2013-07-21 01:55:00
9:15 PM,73.8,61.5,65,29.89,10.0,Calm,Calm,-,N/A,,Clear,0,2013-07-21 02:15:00
9:35 PM,73.8,60.8,64,29.90,10.0,ENE,4.6,-,N/A,,Clear,60,2013-07-21 02:35:00
9:55 PM,72.5,61.5,68,29.91,10.0,ENE,3.5,-,N/A,,Clear,60,2013-07-21 02:55:00
10:15 PM,72.7,61.0,67,29.93,10.0,Calm,Calm,-,N/A,,Clear,0,2013-07-21 03:15:00
10:55 PM,72.9,59.9,64,29.93,10.0,NE,4.6,-,N/A,,Clear,40,2013-07-21 03:55:00
11:15 PM,69.1,60.1,73,29.94,10.0,South,6.9,-,N/A,,Clear,170,2013-07-21 04:15:00
11:35 PM,68.2,59.9,75,29.93,10.0,South,6.9,-,N/A,,Clear,180,2013-07-21 04:35:00
11:55 PM,67.6,59.4,75,29.93,10.0,South,4.6,-,N/A,,Clear,190,2013-07-21 04:55:00